DW9665 Sarajevo BA current weather conditions

sailwx.info

Wind from 180 at 1 knots gusting 3

Air temperature 6.1° C
Dewpoint 5.2° C

Last reported at 2014-Dec-19 10:47 UTC.
Time now 2014-Dec-19 11:59 UTC

Location: N 43°50' E 018°21'.
View on Google Maps.

See reports from other nearby stations

  
Tides and Currents Weather Stations Pressure Air Temp Water Temp Dewpoint Dewpoint Depression Visibility Wind Speed Wind Dir Waves Ship Positions
date/time (UTC)wind fromknots sea level pressurealtimeterstation pressurevisibilityair tempwater tempwave heightnotes
2014-Dec-19 10:47 180 1 gusting 3 6.1
2014-Dec-19 10:32 158 1 gusting 3 5.0
2014-Dec-19 10:17 158 1 gusting 4 4.4
2014-Dec-19 10:02 158 2 gusting 3 3.3
2014-Dec-19 09:47 292 1 gusting 3 2.8
2014-Dec-19 09:32 270 1 gusting 3 1.7
2014-Dec-19 09:17 270 1 gusting 2 2.2
2014-Dec-19 09:02 270 2 gusting 2 2.2
2014-Dec-19 08:47 158 1 gusting 3 1.7
2014-Dec-19 08:32 270 1.7
2014-Dec-19 08:17 1.1
2014-Dec-19 08:02 0.6
2014-Dec-19 07:47 1.1
2014-Dec-19 07:32 0.6
2014-Dec-19 07:17 0.6
2014-Dec-19 07:02 0.6
2014-Dec-19 06:47 158 0 gusting 0 -0.0
2014-Dec-19 06:32 -0.0
2014-Dec-19 06:17 270 -0.0
2014-Dec-19 06:02 270 2 gusting 1 -0.0
2014-Dec-19 05:47 292 0 gusting 1 -0.0
2014-Dec-19 05:32 180 0 gusting 1 -0.6
2014-Dec-19 05:17 180 -0.6
2014-Dec-19 05:02 180 0 gusting 1 -0.6
2014-Dec-19 04:47 158 -0.6
2014-Dec-19 04:32 135 1 gusting 2 -0.6
2014-Dec-19 04:17 270 0 gusting 1 -0.6
2014-Dec-19 04:02 270 0 gusting 0 -0.6
2014-Dec-19 03:47 315 -0.6
2014-Dec-19 03:32 292 2 gusting 1 -0.0
2014-Dec-19 03:17 180 0.6
2014-Dec-19 03:02 180 1 0.6
2014-Dec-19 02:47 068 0.6
2014-Dec-19 02:32 068 0.6
2014-Dec-19 02:17 112 1.1
2014-Dec-19 02:02 135 1.1
2014-Dec-19 01:47 180 0 gusting 0 1.1
2014-Dec-19 01:32 180 1.1
2014-Dec-19 01:17 180 1 gusting 3 1.1
2014-Dec-19 01:02 135 1.7
2014-Dec-19 00:47 158 1.7
2014-Dec-19 00:32 135 1.7
2014-Dec-19 00:17 270 2.2
2014-Dec-19 00:02 270 1 gusting 0 2.2
2014-Dec-18 23:47 180 0 gusting 1 2.2
2014-Dec-18 23:32 180 2.2
2014-Dec-18 23:17 180 2.2
2014-Dec-18 23:02 180 2.2
2014-Dec-18 22:47 180 2.8
2014-Dec-18 22:32 180 2.8
2014-Dec-18 22:17 180 3.3
2014-Dec-18 22:02 180 3.3
2014-Dec-18 21:47 158 3.3
2014-Dec-18 21:32 158 3.3
2014-Dec-18 21:17 158 0 gusting 3 3.3
2014-Dec-18 21:02 135 1 gusting 1 3.9
2014-Dec-18 20:47 270 3.9
2014-Dec-18 20:32 270 3.9
2014-Dec-18 20:17 112 0 gusting 1 3.9
2014-Dec-18 20:02 270 4.4
2014-Dec-18 19:47 270 1 gusting 2 4.4
2014-Dec-18 19:32 270 5.0
2014-Dec-18 19:17 180 1 gusting 5 5.0
2014-Dec-18 19:02 180 0 gusting 3 5.0
2014-Dec-18 18:47 180 0 gusting 3 5.0
2014-Dec-18 18:32 158 1 gusting 5 5.0
2014-Dec-18 18:17 158 1 gusting 2 5.0
2014-Dec-18 18:02 135 0 gusting 1 5.0
2014-Dec-18 17:47 292 5.0
2014-Dec-18 17:32 045 5.6
2014-Dec-18 17:17 270 5.6
2014-Dec-18 17:02 045 6.1
2014-Dec-18 16:47 045 6.1
2014-Dec-18 16:32 045 6.7
2014-Dec-18 16:17 180 7.2
2014-Dec-18 16:02 158 7.8
2014-Dec-18 15:47 158 7.8
2014-Dec-18 15:32 090 0 gusting 3 7.8
2014-Dec-18 15:17 180 1 gusting 3 8.3
2014-Dec-18 15:02 158 1 gusting 2 8.3
2014-Dec-18 14:47 180 1 gusting 5 8.9
2014-Dec-18 14:32 135 2 gusting 3 10.0
2014-Dec-18 14:17 270 11.1
2014-Dec-18 14:02 270 11.1
2014-Dec-18 13:47 270 11.1
2014-Dec-18 13:32 158 1 gusting 3 10.6
2014-Dec-18 13:17 180 2 gusting 3 10.0
2014-Dec-18 13:02 158 1 gusting 2 10.6
2014-Dec-18 12:47 180 0 gusting 5 10.0
2014-Dec-18 12:32 180 1 gusting 4 9.4
2014-Dec-18 12:17 112 0 gusting 5 9.4
2014-Dec-18 12:02 135 2 gusting 5 8.9
2014-Dec-18 11:47 158 3 gusting 2 8.9
2014-Dec-18 11:32 202 8.3
2014-Dec-18 11:17 022 0 gusting 2 8.3
2014-Dec-18 11:02 338 0 gusting 2 8.3
2014-Dec-18 10:47 248 1 gusting 4 8.3
2014-Dec-18 10:32 248 0 gusting 2 8.3
2014-Dec-18 10:17 270 0 gusting 0 8.3
2014-Dec-18 10:02 270 7.8
2014-Dec-18 09:47 180 7.2
2014-Dec-18 09:32 270 7.2
2014-Dec-18 09:17 292 0 gusting 1 6.7
2014-Dec-18 09:02 292 1 gusting 4 6.7
2014-Dec-18 08:47 292 2 gusting 3 6.7
2014-Dec-18 08:32 270 1 gusting 3 6.7
2014-Dec-18 08:17 292 2 gusting 4 6.1
2014-Dec-18 08:02 270 2 gusting 3 6.1
2014-Dec-18 07:47 292 2 gusting 5 6.1
2014-Dec-18 07:32 270 1 gusting 5 6.1
2014-Dec-18 07:17 270 3 gusting 4 6.1
2014-Dec-18 07:02 270 0 gusting 2 6.1
2014-Dec-18 06:47 270 0 gusting 3 6.1
2014-Dec-18 05:47 270 6.1
2014-Dec-18 05:32 270 1 gusting 1 6.1
2014-Dec-18 05:17 270 6.1
2014-Dec-18 05:02 270 0 gusting 0 6.1
2014-Dec-18 04:47 270 6.1
2014-Dec-18 04:32 270 6.1
2014-Dec-18 04:17 270 0 gusting 0 6.1
2014-Dec-18 04:02 270 0 gusting 1 6.1
2014-Dec-18 03:47 180 0 gusting 0 6.1
2014-Dec-18 03:32 180 6.1
2014-Dec-18 03:17 270 6.1
2014-Dec-18 03:02 270 6.1
2014-Dec-18 02:47 270 0 gusting 4 6.1
2014-Dec-18 02:32 270 6.1
2014-Dec-18 02:17 180 6.7
2014-Dec-18 02:02 158 6.7
2014-Dec-18 01:47 158 6.1
2014-Dec-18 01:32 158 0 gusting 1 6.1
2014-Dec-18 01:17 180 6.1
2014-Dec-18 01:02 180 6.7
2014-Dec-18 00:47 180 6.1
2014-Dec-18 00:32 270 6.7
2014-Dec-18 00:17 068 1 gusting 3 6.7
2014-Dec-18 00:02 180 6.7
2014-Dec-17 23:47 112 6.7
2014-Dec-17 23:32 068 6.1
2014-Dec-17 23:17 270 1 gusting 2 6.7
2014-Dec-17 23:02 180 6.7
2014-Dec-17 22:47 180 6.7
2014-Dec-17 22:32 135 1 gusting 2 6.7
2014-Dec-17 22:17 158 1 gusting 1 6.7
2014-Dec-17 22:02 135 0 gusting 1 6.7
2014-Dec-17 21:47 180 6.7
2014-Dec-17 21:32 270 6.7
2014-Dec-17 21:17 270 6.7
2014-Dec-17 21:02 270 6.7
2014-Dec-17 20:47 180 6.7
2014-Dec-17 20:32 180 6.7
2014-Dec-17 20:17 180 6.7
2014-Dec-17 20:02 180 6.7
2014-Dec-17 19:47 180 1 6.7
2014-Dec-17 19:32 6.7
2014-Dec-17 19:17 7.2
2014-Dec-17 19:02 7.2
2014-Dec-17 18:47 6.7
2014-Dec-17 18:32 6.7
2014-Dec-17 18:17 6.7
2014-Dec-17 18:02 6.7
2014-Dec-17 17:47 6.7
2014-Dec-17 17:32 270 3 gusting 3 6.7
2014-Dec-17 17:17 270 3 gusting 5 7.2
2014-Dec-17 17:02 292 2 gusting 3 7.2
2014-Dec-17 16:47 180 1 gusting 2 7.2
2014-Dec-17 16:32 292 7.8
2014-Dec-17 16:17 248 1 gusting 5 7.8
2014-Dec-17 16:02 270 1 gusting 3 7.8
2014-Dec-17 15:47 270 8.3
2014-Dec-17 15:32 202 8.3
2014-Dec-17 15:17 022 2 gusting 2 8.3
2014-Dec-17 15:02 158 8.3
2014-Dec-17 14:47 180 0 gusting 3 8.3
2014-Dec-17 14:32 045 8.9
2014-Dec-17 14:17 292 8.9
2014-Dec-17 14:02 180 9.4
2014-Dec-17 13:47 248 8.9
2014-Dec-17 13:32 248 1 gusting 2 8.9
2014-Dec-17 13:17 270 8.9
2014-Dec-17 13:02 180 0 gusting 3 8.9
2014-Dec-17 12:47 270 1 gusting 3 8.9
2014-Dec-17 12:32 180 8.9
2014-Dec-17 12:17 270 8.3
2014-Dec-17 12:02 248 3 gusting 5 8.3
2014-Dec-17 11:47 292 3 gusting 6 8.3
2014-Dec-17 11:32 248 8.3
2014-Dec-17 11:17 270 2 gusting 4 8.9